Hollywood, FL

4:32 PM EST on January 23, 2017 (GMT -0500)
North Perry

Weather History for KHWO - October, 2012

Change the Weather History Date:

Saturday, October 13, 2012

  Actual Average (KFLL) Record (KFLL)
Temperature  
Mean Temperature 78 °F -  
Max Temperature 84 °F 85 °F 91 °F (1950)
Min Temperature 71 °F 71 °F 63 °F (1977)
Cooling Degree Days 12    
Growing Degree Days 28 (Base 50)    
Moisture  
Dew Point 68 °F    
Average Humidity 76    
Maximum Humidity 94    
Minimum Humidity 55    
Precipitation  
Precipitation 0.56 in - - ()
Sea Level Pressure  
Sea Level Pressure 30.08 in    
Wind  
Wind Speed 10 mph (NE)    
Max Wind Speed 23 mph    
Max Gust Speed 33 mph    
Visibility 7 miles    
Events Fog , Rain    
Averages and records for this station are not official NWS values.
T = Trace of Precipitation, MM = Missing Value Source: NWS Daily Summary

Daily Weather History Graph

Daily Weather History Graph

Search for Another Location

Airport or City:

Trip Planner

Search our weather history database for the weather conditions in past years. The results will help you decide how hot, cold, wet, or windy it might be!

Date:

Astronomy

Oct. 13, 2012 Rise Set
Actual Time 7:19 AM EDT 6:54 PM EDT
Civil Twilight 6:55 AM EDT 7:17 PM EDT
Nautical Twilight 6:29 AM EDT 7:44 PM EDT
Astronomical Twilight 6:02 AM EDT 8:11 PM EDT
Moon 5:16 AM EDT (10/13) 5:31 PM EDT (10/13)
Length of Visible Light 12h 21m
Length of Day
11h 35m
Waning Crescent, 5% of the Moon is Illuminated
Oct 13
Waning Crescent
Oct 15
New
Oct 21
First Quarter
Oct 29
Full
Nov 6
Last Quarter

Hourly Weather History & Observations

Time (EDT) Temp. Heat Index Dew Point Humidity Pressure Visibility Wind Dir Wind Speed Gust Speed Precip Events Conditions
12:53 AM 73.0 °F - 64.9 °F 76% 30.10 in 10.0 mi North 3.5 mph - N/A   Clear
1:53 AM 72.0 °F - 66.0 °F 81% 30.09 in 10.0 mi NNW 4.6 mph - N/A   Partly Cloudy
2:53 AM 72.0 °F - 66.9 °F 84% 30.07 in 10.0 mi NNW 6.9 mph - N/A   Partly Cloudy
3:53 AM 72.0 °F - 66.9 °F 84% 30.06 in 10.0 mi NNW 8.1 mph - N/A   Scattered Clouds
4:53 AM 73.0 °F - 66.9 °F 81% 30.05 in 10.0 mi NNW 8.1 mph - N/A   Mostly Cloudy
5:53 AM 73.9 °F - 66.9 °F 79% 30.06 in 10.0 mi North 6.9 mph - N/A   Overcast
6:53 AM 72.0 °F - 69.1 °F 91% 30.07 in 9.0 mi NNW 6.9 mph - 0.01 in   Mostly Cloudy
7:37 AM 71.6 °F - 69.8 °F 94% 30.08 in 1.5 mi Calm Calm - 0.07 in Rain Light Rain
7:41 AM 71.6 °F - 69.8 °F 94% 30.08 in 0.8 mi North 10.4 mph 18.4 mph 0.15 in Rain Heavy Rain
7:51 AM 73.4 °F - 69.8 °F 88% 30.08 in 6.0 mi North 6.9 mph 19.6 mph 0.18 in Rain Light Rain
7:53 AM 73.0 °F - 70.0 °F 90% 30.09 in 6.0 mi North 6.9 mph 19.6 mph 0.21 in Rain Light Rain
8:05 AM 73.4 °F - 71.6 °F 94% 30.09 in 0.5 mi NE 13.8 mph 19.6 mph 0.16 in Fog , Rain Heavy Rain
8:15 AM 73.4 °F - 71.6 °F 94% 30.10 in 7.0 mi NE 9.2 mph - 0.16 in   Overcast
8:53 AM 73.9 °F - 71.1 °F 91% 30.10 in 4.0 mi NE 6.9 mph 19.6 mph 0.19 in Rain Light Rain
9:53 AM 80.1 °F 83.6 °F 71.1 °F 74% 30.12 in 7.0 mi ENE 15.0 mph - 0.02 in   Overcast
10:53 AM 81.0 °F 84.4 °F 70.0 °F 69% 30.12 in 5.0 mi NE 18.4 mph 27.6 mph 0.01 in Rain Light Rain
11:00 AM 77.0 °F - 69.8 °F 78% 30.13 in 1.0 mi NE 20.7 mph 29.9 mph 0.09 in Rain Light Rain
11:08 AM 75.2 °F - 71.6 °F 89% 30.13 in 3.0 mi ENE 19.6 mph 26.5 mph 0.10 in Rain Light Rain
11:53 AM 77.0 °F - 72.0 °F 84% 30.12 in 8.0 mi ENE 11.5 mph - 0.12 in   Overcast
12:53 PM 82.9 °F 87.5 °F 71.1 °F 67% 30.09 in 8.0 mi ENE 19.6 mph 24.2 mph N/A   Overcast
1:53 PM 84.0 °F 86.5 °F 66.9 °F 56% 30.09 in 10.0 mi ENE 23.0 mph 31.1 mph N/A   Mostly Cloudy
2:53 PM 82.9 °F 85.0 °F 66.0 °F 56% 30.05 in 10.0 mi ENE 19.6 mph 29.9 mph N/A   Overcast
3:53 PM 84.0 °F 86.3 °F 66.0 °F 55% 30.04 in 9.0 mi NE 21.9 mph 33.4 mph N/A   Scattered Clouds
4:53 PM 82.9 °F 85.0 °F 66.0 °F 56% 30.04 in 9.0 mi ENE 19.6 mph 27.6 mph N/A   Partly Cloudy
5:53 PM 81.0 °F 82.5 °F 64.0 °F 56% 30.05 in 9.0 mi NE 18.4 mph 26.5 mph N/A   Scattered Clouds
6:53 PM 80.1 °F 82.1 °F 66.0 °F 62% 30.05 in 9.0 mi ENE 17.3 mph 21.9 mph N/A   Scattered Clouds
8:53 PM 80.1 °F 82.1 °F 66.0 °F 62% 30.08 in 10.0 mi ENE 11.5 mph 23.0 mph N/A   Mostly Cloudy
9:53 PM 80.1 °F 82.1 °F 66.0 °F 62% 30.09 in 9.0 mi ENE 18.4 mph 26.5 mph N/A   Mostly Cloudy
10:53 PM 79.0 °F - 66.0 °F 64% 30.09 in 10.0 mi ENE 17.3 mph 24.2 mph 0.00 in   Overcast
11:53 PM 78.1 °F - 64.9 °F 64% 30.08 in 10.0 mi ENE 12.7 mph - N/A   Partly Cloudy